Regional Weather Roundup
Issued by NWS

Home | Current Version | Previous Version | Graphics & Text | Print | Product List | Glossary On
Versions: 1 2 3 4 5 6 7 8 9 10 11 12 13 14 15 16 17 18 19 20 21 22 23 24 25 26 27 28 29 30 31 32 33 34 35 36 37 38 39 40 41 42 43 44 45 46 47 48 49 50
000
ASUS43 KFSD 251502
RWRSD

WEATHER ROUNDUP FOR SOUTH DAKOTA
NATIONAL WEATHER SERVICE SIOUX FALLS SD
1000 AM CDT SUN JUN 25 2017

NOTE: "FAIR" INDICATES FEW OR NO CLOUDS BELOW 12,000 FEET WITH NO
SIGNIFICANT WEATHER AND/OR OBSTRUCTIONS TO VISIBILITY.


SDZ001>005-009-010-012>017-251600-
NORTHWEST AND NORTH CENTRAL SOUTH DAKOTA

CITY           SKY/WX    TMP DP  RH WIND       PRES   REMARKS
BUFFALO          N/A     66  35  31 SW7       30.25F
FAITH            N/A     65  33  30 SW17      30.30F
MOBRIDGE       MOSUNNY   63  41  44 VRB3      30.28F
$$

SDZ012>016-024>037-041>051-057-063-072>074-251600-
SOUTHWEST AND SOUTH CENTRAL SOUTH DAKOTA

CITY           SKY/WX    TMP DP  RH WIND       PRES   REMARKS
RAPID CTY ARPT SUNNY     64  34  32 S12       30.34F
PIERRE         NOT AVBL
CUSTER         CLOUDY    55  30  38 VRB6      30.39F
ELLSWORTH AFB  SUNNY     65  33  30 S14       30.32F
PHILIP         SUNNY     66  36  32 S9        30.33F
PINE RIDGE     SUNNY     66  38  35 SE8       30.36S
SPEARFISH      FAIR      63  36  36 N5        30.34F
WINNER         FAIR      67  36  31 NW5       30.35F
$$

SDZ004>011-016>023-039-040-251600-
NORTHEAST SOUTH DAKOTA

CITY           SKY/WX    TMP DP  RH WIND       PRES   REMARKS
ABERDEEN       SUNNY     62  43  49 W9        30.30S
WATERTOWN      MOSUNNY   59  45  59 NW14      30.28R
BROOKINGS      MOSUNNY   58  45  62 NW14G22   30.29S
SISSETON         N/A     61  45  55 NW14      30.26R
$$

SDZ017-020-022-023-036>040-048>070-251600-
SOUTHEAST SOUTH DAKOTA

CITY           SKY/WX    TMP DP  RH WIND       PRES   REMARKS
SIOUX FALLS    MOSUNNY   61  48  62 NW12      30.30S
HURON          SUNNY     62  44  51 N9        30.32S
CHAMBERLAIN    SUNNY     65  43  44 W8        30.34S
YANKTON        SUNNY     62  42  47 NW16G23   30.33S
$$

ABBREVIATIONS USED IN REMARKS
   TC - TEMPERATURE IN CELSIUS
  WCI - WIND CHILL INDEX
   HX - HEAT INDEX
  VSB - VISIBILITY




USA.gov is the U.S. government's official web portal to all federal, state and local government web resources and services.